Location: Hilton Head Island
(32.2163°N, 80.7526°W)
Time: 08:33:42
(UTC-04:00)

Vanguard 1 - Pass Details

Date: 25 February 2026
Orbit: 653 x 3818 km, 34.2° (Epoch: 17 March)

Event Time Altitude Azimuth Distance (km) Brightness Sun altitude
Rises 16:52:55 0° 280° (W) 4,574 14.5 16.4°
Reaches altitude 10° 16:55:22 10° 281° (W) 3,888 14.3 15.9°
Maximum altitude 17:06:25 88° 11° (N) 2,482 12.3 13.7°
Drops below altitude 10° 17:26:50 10° 104° (ESE) 6,634 13.8 9.6°
Sets 17:32:33 0° 104° (ESE) 7,859 14.1 8.4°
